KD7DVD-1 Weather Reports


Display with metric or nautical units.
time (UTC)temp
F
wind
direction
speed
MPH
gust
MPH
rain 1hr
in
rain 24hr
in
rain mn
in
humidity
%
barometer
mb
20260508133016 49 0.0 2.0 0.00 0.00 0.00 88 1017.6
20260508130016 49 0.0 0.0 0.00 0.00 0.00 89 1017.3
20260508123016 49 0.0 0.0 0.00 0.00 0.00 91 1017.1
20260508120016 49 0.0 0.0 0.00 0.00 0.00 91 1016.8
20260508113016 49 0.0 0.0 0.00 0.00 0.00 91 1016.5
20260508110016 49 0.0 0.0 0.00 0.00 0.00 91 1016.3
20260508103016 50 0.0 0.0 0.00 0.00 0.00 90 1016.1
20260508100016 50 0.0 0.0 0.00 0.00 0.00 90 1016.0
20260508093016 50 0.0 0.0 0.00 0.00 0.00 90 1016.0
20260508090016 51 0.0 0.0 0.00 0.00 0.00 89 1016.0
20260508083015 51 0.0 0.0 0.00 0.00 0.00 88 1015.9
20260508080015 52 0.0 0.0 0.00 0.00 0.00 87 1015.9
20260508073015 52 0.0 0.0 0.00 0.00 0.00 86 1016.0
20260508070015 52 0.0 0.0 0.00 0.00 0.00 86 1016.0
20260508063016 52 0.0 0.0 0.00 0.00 0.00 84 1016.1
20260508060016 53 0.0 0.0 0.00 0.00 0.00 83 1016.2
20260508053016 54 0.0 0.0 0.00 0.00 0.00 79 1016.2
20260508050016 54 0.0 0.0 0.00 0.00 0.00 78 1016.2
20260508043016 55 0.0 0.0 0.00 0.00 0.00 76 1016.3
20260508040016 57 0.0 0.0 0.00 0.00 0.00 73 1016.3
20260508033016 59 0.0 0.0 0.00 0.00 0.00 69 1016.2
20260508030016 61 0.0 0.0 0.00 0.00 0.00 63 1016.3
20260508023016 62 0.0 2.0 0.00 0.00 0.00 60 1016.4
20260508020016 65 0.0 1.0 0.00 0.00 0.00 58 1016.6
20260508013017 65 0.0 2.0 0.00 0.00 0.00 56 1016.7
20260508010016 68 0.0 2.0 0.00 0.00 0.00 52 1017.1
20260508003016 67 0.0 3.0 0.00 0.00 0.00 51 1017.3
20260508000020 66 0.0 2.0 0.00 0.00 0.00 53 1017.3
20260507233015 66 0.0 3.0 0.00 0.00 0.00 56 1017.5
20260507230015 65 0.0 3.0 0.00 0.00 0.00 57 1017.7
20260507223015 63 0.0 2.0 0.00 0.00 0.00 62 1017.9
20260507220017 64 0.0 3.0 0.00 0.00 0.00 58 1018.1
20260507213017 60 0.0 2.0 0.00 0.00 0.00 64 1018.6
20260507210017 61 0.0 3.0 0.00 0.00 0.00 64 1019.0
20260507203017 61 0.0 3.0 0.00 0.00 0.00 64 1019.4
20260507200017 61 0.0 3.0 0.00 0.00 0.00 62 1019.5
20260507193017 60 0.0 2.0 0.00 0.00 0.00 66 1019.6
20260507190017 60 0.0 1.0 0.00 0.00 0.00 68 1019.8
20260507183017 58 0.0 2.0 0.00 0.00 0.00 69 1020.1
20260507180017 59 0.0 3.0 0.00 0.00 0.00 67 1020.1
20260507173017 56 0.0 1.0 0.00 0.00 0.00 76 1020.3
20260507170016 55 0.0 2.0 0.00 0.00 0.00 76 1020.2
20260507163016 54 0.0 3.0 0.00 0.00 0.00 78 1020.2
20260507160016 54 0.0 1.0 0.00 0.00 0.00 79 1020.4
20260507153016 53 0.0 3.0 0.00 0.00 0.00 79 1020.5
20260507150016 55 0.0 2.0 0.00 0.00 0.00 79 1020.4
20260507143016 54 0.0 1.0 0.00 0.00 0.00 79 1020.4
20260507140016 51 0.0 1.0 0.00 0.00 0.00 85 1020.3